THORAD AGENA D DEB, 4639

Orbit data source: Space-Track

THORAD AGENA D DEB, 4639 is space debris in SSO originally from a launch on Wed, 08 Apr 1970 UTC launched from the Air Force Western Test Range (AFWTR). Debris objects in space refer to the collection of defunct objects orbiting the Earth. Examples of debris include non-operational satellites, rocket bodies, and fragments generated from explosions, collisions, or faulty payload assembly.

Loading next visibility...
Identifier
4639, 1970-025X
Orbit
SSO
Country
Flag of USUS
Related business
Manufacturer
Unknown
Mission
Spacecraft
Bus & Motor
Unknown
Mass
Unknown
Launch date (UTC)
1970-04-08 (56 years ago)
Launch vehicle
Unknown
Launch site
Air Force Western Test Range (AFWTR)
Object type
Payload
Rocket body
Debris
Shape & HBR
Unknown shape, 0.1 m
Radar Cross Section
Small (<0.1 m²)

Expand to show TLE details & history
Last TLE update: 12 hours ago

TLE from 12 hours ago
0 THORAD AGENA D DEB
1  4639U 70025X   26063.15456968  .00000139  00000-0  36021-3 0  9995
2  4639  99.8905 134.1185 0112558 326.6904  60.6129 13.33096721715281
Epoch: 2026-03-04T03:42Z
TLE epoch observation values (Epoch: 2026-03-04T03:42:34.820Z)
Latitude
28.01718°
Longitude
-88.74578°
Altitude
1,097.638 km
Speed
7.326 km/s
True Right ascension
08h 35m 17s
True Declination
27° 52' 53"
Sunlit
Object was in full shadow at epoch
Visualization orbit readout
Latitude
Unknown
Longitude
Unknown
Altitude
Unknown
Speed
Unknown
Apparent Right ascension
Unknown
Apparent Declination
Unknown
Sunlit
N/A
Visualization observer readout
Local Sidereal Time
19:46:16
Azimuth
Unknown
Elevation
Unknown
Doppler factor
Unknown
Orbital elements
Apogee altitude
1,216.976 km
Perigee altitude
1,047.901 km
Semi-major axis
7,510.576 km
Eccentricity
0.01126
Inclination
99.8905°
RAAN
134.1185°
Arg. of periapsis
326.6904°
True anomaly
61.74449°
Mean anomaly
60.6129°
Eccentric anomaly
61.17792°
Mean motion
3.33452 °/min
Orbital period
107.96 mins
BSTAR
0.00036021

Documentation

Showing up to 5 results
|